Home   Weather   Orange   Past weeks
Flag for Australia

Past Weather in Orange, New South Wales, Australia — Yesterday and Last 2 Weeks

Now
35 °F

Chilly.


Feels Like: 32 °F
Forecast: 54 / 35 °F
Wind: 3 mph from West

Location: Bathurst Airport Aws

Current Time: Jul 20, 2019 at 11:36:35 am

Latest Report: Jul 20, 2019 at 10:00 am


Visibility: N/A

Pressure: 30.29 "Hg (27.21 "Hg at 863m altitude)

Humidity: 100%

Dew Point: 35 °F

Location of OrangeLocation

Past Weather in Orange — Graph

°F

Orange Temperature Yesterday

Maximum temperature yesterday: 52 °F (at 3:00 pm)
Minimum temperature yesterday: 33 °F (at 5:00 am)
Average temperature yesterday: 42 °F

High & Low Weather Summary for the Past Weeks

 TemperatureHumidityPressure
High61 °F (Jul 7, 2:00 pm)100% (Jul 7, 2:00 am)30.63 "Hg (Jul 7, 2:00 am)
Low24 °F (Jul 20, 7:00 am)46% (Jul 11, 2:00 pm)29.90 "Hg (Jul 13, 4:00 am)
Average44 °F82%30.21 "Hg
* Reported Jul 5 10:00 am — Jul 20 10:00 am, Orange. Weather by CustomWeather, © 2019

Note: Actual official high and low records may vary slightly from our data, if they occured in-between our weather recording intervals... More about our weather records

Advertising

Orange Weather History for the Previous 24 Hours

Scroll right to see more
 ConditionsComfort  
Time TempWeatherWind HumidityBarometerVisibility
10:00 am
Sat, Jul 20
35 °FChilly.3 mph100%30.29 "HgN/A
9:00 am29 °FLow clouds.3 mph99%30.29 "Hg0 mi
8:00 am28 °FChilly.1 mph100%30.27 "HgN/A
7:00 am24 °FCold.No wind99%30.27 "HgN/A
6:00 am25 °FPassing clouds.3 mph99%30.25 "HgN/A
5:00 am26 °FChilly.1 mph99%30.26 "HgN/A
4:00 am30 °FChilly.6 mph99%30.26 "HgN/A
3:00 am30 °FChilly.No wind99%30.25 "HgN/A
2:00 am31 °FChilly.2 mph99%30.26 "HgN/A
1:00 am34 °FChilly.7 mph100%30.26 "HgN/A
12:00 am38 °FChilly.7 mph97%30.27 "HgN/A
11:00 pm
Fri, Jul 19
34 °FChilly.5 mph85%30.28 "HgN/A
10:00 pm40 °FQuite cool.6 mph87%30.27 "HgN/A
9:00 pm41 °FQuite cool.6 mph84%30.27 "HgN/A
8:00 pm46 °FCool.8 mph73%30.26 "HgN/A
7:00 pm45 °FCool.6 mph78%30.25 "HgN/A
6:00 pm45 °FPassing clouds.7 mph78%30.23 "HgN/A
5:00 pm46 °FCool.9 mph70%30.22 "HgN/A
4:00 pm50 °FCool.12 mph64%30.20 "HgN/A
3:00 pm52 °FPassing clouds.12 mph59%30.19 "HgN/A
2:00 pm52 °FCool.10 mph62%30.19 "HgN/A
1:00 pm51 °FCool.14 mph61%30.19 "HgN/A
12:00 pm51 °FPartly sunny.17 mph61%30.20 "HgN/A
11:00 am49 °FCool.6 mph66%30.22 "HgN/A
Weather by CustomWeather, © 2019

See weather overview